Location: Unspecified
(0.0000°N, 0.0000°E)
Time: 07:18:29
(UTC+00:00)

Transit 4A - Pass Details

Date: 09 October 2023
Orbit: 864 x 979 km, 66.8° (Epoch: 05 December)

Event Time Altitude Azimuth Distance (km) Brightness Sun altitude
Rises 07:59:51 0° 212° (SSW) 3,553 10.7 32.9°
Reaches altitude 10° 08:02:25 10° 217° (SW) 2,627 10.1 33.5°
Maximum altitude 08:08:16 47° 290° (WNW) 1,232 8.6 35.0°
Drops below altitude 10° 08:14:15 10° 2° (N) 2,687 10.4 36.5°
Sets 08:16:56 0° 8° (N) 3,643 11.0 37.1°
